User: anonymous   Login
Location: NJAA Observatory
(40.6819°N, 74.8979°W)
Time: 17:29:43
(UTC-04:00)
Language:

CENTAUR R/B - Orbit

View from above orbital plane
View from above orbital plane
View from above satellite
View from above satellite

Ground track
Ground track

The orbit data is extracted from the following two-line orbital elements,

1 26906U 01040B   15157.86101923 0.00000050  00000-0  67105-4 0    08
2 26906  63.4635  72.6392 0289500 343.9547  16.0453 13.43957546    06
Epoch (UTC): 06 June 2015 20:39:52
Eccentricity: 0.0289500
inclination: 63.4635°
perigee height: 878 km
apogee height: 1311 km
right ascension of ascending node: 72.6392°
argument of perigee: 343.9547°
revolutions per day: 13.43957546
mean anomaly at epoch: 16.0453°
orbit number at epoch: 0

The dashed part of the orbit path shows where the satellite is in the earth's shadow,  

DLR